Wind_Speed
12 14 16 16 16 15 17 17 18 19 19 19 16 16 18 17 14 13 13 13 13 13 12 12 11 11 11 10 10 10 10 10 10 10 9 9 9 9 9 9 9 9 10 11 11 11 12 11 11 11 12 13 14 15 14 14 13 13 12 12 16 17 13 15 20 20 18 19 20 19 18 18 19 19 16 15 15 15 14 15 16 16 18 17 15
15 14 15 16 15 15 17 17 18 18 19 20 18 15 16 16 14 14 13 13 12 12 11 11 10 10 10 10 9 9 10 9 9 9 9 9 9 9 9 9 9 9 10 11 11 11 12 11 11 11 12 12 13 14 14 13 12 12 13 12 17 19 14 14 19 20 18 19 20 19 19 19 20 18 16 15 16 16 15 16 16 16 17 16 15
18 15 15 17 16 16 16 16 17 17 18 19 18 15 16 16 15 15 14 13 12 11 10 10 11 11 10 10 10 10 10 9 9 9 9 8 9 9 9 9 9 9 10 11 11 12 12 11 10 11 11 12 13 13 14 13 12 12 12 12 16 19 15 14 19 19 19 19 19 19 19 19 20 18 16 17 18 18 17 18 17 17 17 16 15
19 17 17 18 17 17 16 16 17 17 18 18 17 16 16 16 15 15 13 12 11 11 11 11 11 11 11 11 10 10 10 9 9 9 9 9 9 9 9 10 10 10 10 11 12 12 12 12 11 11 10 11 13 13 13 13 12 11 12 12 14 20 19 16 18 19 20 19 19 19 18 18 19 19 17 18 19 19 19 19 18 17 16 15 14
20 18 19 19 18 18 17 17 18 19 19 18 17 17 17 16 15 14 13 12 11 11 11 11 11 11 11 10 10 10 10 10 9 9 9 9 9 10 11 10 11 12 12 11 11 11 13 13 12 11 10 10 12 13 13 13 13 11 13 12 12 20 23 20 17 19 21 20 20 20 19 18 18 18 18 17 19 19 18 18 18 17 16 15 15
19 18 19 19 18 19 18 18 19 19 20 18 17 17 17 16 15 14 13 12 12 12 12 12 11 11 10 10 10 10 12 11 10 10 10 10 11 11 11 10 12 14 13 11 10 10 12 13 13 12 10 10 11 12 12 13 14 12 14 11 11 18 23 22 19 20 22 18 19 21 21 17 17 19 17 17 18 17 16 16 16 16 15 15 15
18 18 17 18 18 19 19 18 18 18 17 17 17 16 16 15 14 13 12 12 12 12 12 12 11 10 10 10 10 11 12 13 12 11 11 11 12 11 11 11 12 14 13 11 11 10 11 13 14 13 10 11 10 11 12 14 14 13 14 10 10 17 20 22 21 21 20 16 15 18 20 16 16 19 17 16 17 16 15 16 16 15 15 15 15
17 17 16 18 18 19 18 17 17 16 16 16 16 15 15 14 14 13 12 13 13 13 12 12 11 10 10 11 11 11 12 13 13 12 12 12 13 12 12 12 13 14 13 11 10 11 11 12 14 13 11 11 10 11 12 13 14 14 13 10 11 16 17 19 19 19 19 16 13 14 17 17 16 18 17 16 16 15 15 15 15 15 15 15 15
17 16 16 19 19 18 17 16 16 16 16 15 15 14 14 14 13 12 12 13 13 12 13 13 12 10 10 11 12 13 13 13 13 13 13 14 14 14 14 13 14 14 13 11 10 11 11 12 13 13 11 11 11 11 12 13 14 14 12 10 12 14 16 18 16 16 17 18 18 14 15 16 17 17 16 16 15 14 14 14 15 16 15 16 15
17 15 15 17 19 18 16 16 15 16 15 14 14 14 14 13 13 12 12 13 12 12 13 14 13 11 12 13 13 14 14 14 14 14 14 14 15 15 15 15 15 13 13 13 11 12 11 11 12 12 12 12 12 12 12 13 13 13 11 11 12 14 16 16 15 15 16 17 18 17 16 16 17 17 15 15 14 13 14 14 16 17 16 17 16
16 15 15 16 18 17 16 15 15 16 15 14 14 13 14 13 12 12 12 12 12 12 13 15 14 12 13 14 14 15 15 14 14 15 14 15 15 16 16 15 16 15 14 13 11 12 11 12 12 12 12 12 12 12 12 12 12 12 10 11 12 14 15 14 13 15 15 15 16 18 18 17 17 17 16 15 15 14 14 15 16 16 16 16 16
16 15 15 16 17 16 15 14 15 15 14 14 14 13 13 13 12 11 11 12 11 12 13 15 14 12 13 14 15 15 15 14 14 15 14 15 16 16 15 15 16 15 14 13 12 12 12 12 13 12 12 12 13 13 13 12 12 12 10 11 12 13 14 12 13 14 14 16 17 17 18 18 18 17 16 15 15 14 14 15 15 16 16 15 15
16 15 16 16 16 15 14 14 14 14 13 13 13 12 12 12 12 10 10 11 11 11 13 14 14 12 13 14 14 15 14 14 15 15 14 16 17 16 15 16 17 15 14 14 13 13 12 12 13 13 13 13 13 14 14 13 13 12 11 12 12 13 14 13 13 14 14 16 17 17 18 18 18 16 15 15 14 14 14 14 15 15 15 15 14
17 16 16 16 16 15 14 14 14 13 12 12 12 12 12 12 12 11 8 9 11 11 12 13 14 13 13 14 14 15 14 13 14 15 15 17 18 17 15 17 18 15 15 16 15 14 12 11 12 13 14 14 14 14 14 14 13 12 12 12 12 13 13 13 13 15 16 17 17 17 18 18 17 16 15 14 14 13 13 14 14 14 14 14 14
17 17 16 16 16 15 14 14 13 12 12 12 11 11 11 12 13 12 9 8 10 11 12 13 15 15 14 14 14 14 14 14 14 15 16 18 19 17 15 17 18 16 15 16 15 14 12 12 12 13 14 14 14 14 14 14 13 12 12 11 12 12 11 12 13 14 16 16 16 16 17 17 15 15 14 13 13 13 13 13 13 13 13 13 13
16 16 16 16 16 15 15 14 12 11 11 11 11 11 11 12 12 13 11 8 8 11 12 13 15 16 15 14 14 14 14 14 15 15 16 18 18 17 16 17 18 16 15 15 15 14 14 13 13 14 14 14 14 14 14 14 15 13 12 11 11 12 11 12 13 13 14 15 15 15 15 15 14 13 13 12 12 12 12 12 13 13 13 13 13
16 16 16 16 15 15 14 14 13 12 11 11 11 11 10 11 11 12 13 10 8 10 11 12 15 17 17 15 15 14 13 14 16 16 16 16 16 16 17 16 17 17 16 15 15 15 15 15 14 14 15 15 16 15 14 15 16 14 13 12 11 13 12 11 13 13 13 14 14 14 14 13 13 12 12 12 11 11 11 12 12 12 12 12 12
16 15 15 14 14 13 13 13 12 12 12 11 10 10 9 10 10 11 13 12 11 10 10 12 12 14 16 15 15 15 14 15 16 16 14 15 15 16 17 16 17 19 17 17 16 16 16 16 15 15 15 16 17 17 16 15 15 15 13 12 12 14 13 11 13 13 13 14 13 13 13 12 12 11 11 10 10 9 10 11 11 11 11 11 11
15 14 14 13 12 12 12 12 11 11 11 10 10 9 9 9 9 10 11 13 14 12 12 13 12 12 14 14 15 16 15 16 16 15 14 14 15 16 17 16 17 19 19 18 18 18 17 17 16 15 16 17 18 18 17 15 15 14 12 11 12 13 12 11 12 12 12 13 13 13 12 12 11 10 9 9 9 8 9 10 10 11 11 10 10
14 13 13 12 12 11 11 11 10 9 9 9 10 9 9 9 8 10 9 11 12 13 14 14 14 13 13 13 15 15 14 15 15 14 14 14 15 15 16 16 17 18 18 19 19 19 18 16 14 15 16 17 19 18 17 15 15 13 11 11 12 11 10 11 11 11 12 12 12 12 11 11 9 8 8 8 8 8 9 10 10 10 10 9 9
13 13 12 11 11 11 11 10 9 8 8 9 10 9 9 9 8 9 9 9 10 11 13 13 14 14 14 14 13 13 12 13 13 14 14 14 14 14 15 17 18 18 18 19 19 19 18 16 14 15 16 18 20 19 17 15 14 12 11 11 10 8 9 10 10 11 11 11 11 10 10 9 9 8 8 8 9 9 10 10 10 9 9 8 8
14 13 12 11 11 11 11 10 9 8 8 9 9 9 9 9 8 8 8 9 9 10 10 11 12 12 12 12 11 11 11 11 11 12 13 13 14 13 14 16 18 20 19 19 19 19 18 16 15 16 16 17 18 18 16 15 13 12 12 11 8 7 8 8 9 10 10 11 11 9 8 8 8 7 7 8 9 9 9 9 9 8 9 8 8
14 13 12 12 11 11 10 9 9 8 8 8 9 9 9 9 8 8 8 8 8 9 9 9 9 9 10 10 10 10 11 11 12 13 13 13 13 13 14 15 16 19 20 19 19 19 17 15 15 16 16 15 16 15 13 12 12 11 10 9 7 8 8 7 8 9 10 11 10 8 7 7 7 7 7 8 8 8 8 8 8 8 8 7 7
14 13 13 12 11 11 10 9 8 8 8 8 8 8 8 8 8 8 7 7 7 7 8 8 8 8 8 9 10 11 11 12 13 13 12 12 12 12 13 13 14 15 16 17 17 16 16 15 15 14 13 13 12 11 10 10 9 9 8 8 8 8 8 8 8 9 9 10 9 8 7 7 7 8 7 7 8 8 7 7 7 6 7 7 6
13 13 13 12 11 10 9 9 9 8 8 8 8 8 8 8 8 8 7 7 7 7 7 7 7 7 7 8 10 10 10 11 10 10 10 9 10 10 10 11 11 11 11 11 12 11 13 14 14 13 12 11 11 10 10 10 9 9 8 9 9 8 8 8 8 8 9 9 7 7 7 7 7 7 7 7 7 7 6 6 6 6 6 6 6
12 12 13 12 11 10 9 9 9 9 8 8 7 7 8 8 8 8 8 7 7 7 7 7 7 6 6 7 8 9 9 9 9 9 8 8 9 9 9 9 9 9 9 9 10 10 10 11 12 12 11 11 11 11 10 9 10 9 9 9 8 8 8 8 8 8 8 8 6 5 6 6 6 7 7 6 6 6 6 6 5 5 5 6 5
12 11 11 11 10 10 9 10 10 9 8 8 7 7 8 7 8 8 7 7 7 7 7 7 7 6 6 6 7 7 8 8 8 8 8 8 8 9 9 9 9 8 8 9 9 9 10 10 10 10 10 11 11 10 10 10 9 9 9 9 8 8 8 8 8 8 8 8 6 5 5 6 6 6 6 5 5 5 5 5 5 5 5 5 5
12 11 10 10 11 10 10 10 10 10 9 8 7 7 7 7 8 8 8 8 7 7 7 7 7 7 6 6 6 6 7 7 8 8 8 8 8 9 9 8 9 8 8 9 9 9 9 9 9 9 9 9 10 10 10 10 9 9 9 9 8 8 8 8 8 7 8 8 7 6 5 5 6 6 5 5 5 5 5 5 5 5 5 5 4
13 12 10 10 11 11 11 11 10 10 9 8 7 7 7 7 7 8 8 8 7 7 8 8 7 7 7 6 5 5 6 7 7 7 8 8 8 8 8 8 8 8 8 8 9 9 9 9 9 9 9 8 9 9 9 9 9 9 9 9 9 9 8 8 8 7 7 7 7 6 6 7 6 6 5 5 4 4 4 4 4 4 4 4 4
14 12 11 10 11 12 12 11 11 10 9 8 7 7 7 7 7 7 8 8 8 8 8 8 7 7 7 6 5 5 6 7 7 8 8 8 8 7 7 7 7 7 8 8 8 9 9 9 9 9 9 8 9 8 8 9 9 9 8 8 8 9 8 8 7 7 7 7 6 6 7 7 7 7 6 5 5 4 4 4 4 4 3 3 3
14 13 12 11 12 13 12 11 10 10 10 8 8 8 8 7 7 7 8 8 8 8 7 7 7 7 7 6 6 6 6 7 7 8 8 7 7 7 6 7 7 7 7 7 8 8 9 9 8 8 8 8 8 8 7 8 9 9 8 8 8 8 8 7 7 7 7 6 6 5 5 6 6 5 5 4 4 4 4 3 3 3 2 2 2
14 14 12 11 12 13 12 12 11 10 10 9 9 9 8 7 7 8 8 8 8 7 7 7 7 7 7 7 6 6 7 8 8 7 7 7 6 6 6 6 7 7 7 7 7 7 8 7 7 7 7 7 7 7 6 7 8 8 8 8 8 7 7 7 7 7 6 6 5 5 4 3 4 4 3 3 2 3 3 2 2 1 1 1 1
14 14 13 12 13 12 12 12 11 11 10 10 9 9 9 8 8 8 8 8 8 7 7 7 7 7 7 7 6 7 7 7 7 7 7 7 6 6 6 6 6 6 6 6 6 6 6 6 6 6 7 7 7 6 6 7 7 7 7 8 8 7 7 7 7 6 6 6 5 5 4 3 2 3 3 3 2 1 1 0 0 0 1 1 2
13 14 14 13 13 12 12 12 12 12 11 10 9 9 9 9 8 8 8 8 7 7 8 8 8 8 7 7 7 7 7 7 7 6 5 6 6 6 6 6 5 5 5 5 5 5 5 5 6 6 6 6 7 6 6 6 6 6 7 7 7 7 6 7 7 6 6 6 5 4 4 4 3 2 2 2 2 1 1 1 2 2 2 2 2
13 14 14 14 13 12 12 12 12 12 11 11 10 9 9 9 8 8 8 7 7 7 8 8 8 8 8 8 7 6 6 6 6 5 4 5 6 6 6 5 5 4 4 4 4 4 4 5 5 5 6 6 7 6 6 6 6 6 6 7 7 7 7 7 6 6 6 6 5 5 4 3 3 2 1 2 2 2 3 2 2 3 3 3 3
14 14 14 15 14 13 12 12 13 13 12 11 10 10 9 9 8 8 8 7 7 7 7 8 8 8 8 8 7 6 6 6 6 5 4 4 5 6 5 5 4 4 4 3 3 3 4 4 5 5 6 6 6 7 7 6 6 6 6 6 7 6 6 6 5 6 6 5 5 5 5 4 3 3 2 2 1 2 5 4 3 3 3 3 4
15 15 15 15 15 14 13 12 14 14 13 12 11 10 10 9 9 8 8 8 7 7 7 7 8 8 8 7 7 6 6 7 6 5 4 4 5 5 5 4 3 3 3 3 3 3 3 3 4 4 5 5 6 7 6 6 5 5 5 6 6 6 5 5 5 5 5 4 4 4 4 4 4 3 2 2 2 2 4 5 4 3 3 3 3
15 15 16 16 15 14 13 12 13 14 13 13 12 11 10 10 9 9 8 8 7 7 7 7 7 7 7 7 7 6 6 7 7 5 4 5 5 5 4 4 3 2 2 2 2 3 3 3 3 4 4 4 5 5 6 5 4 4 5 5 5 5 4 4 4 4 3 4 4 4 4 4 3 3 3 2 3 2 3 5 5 4 4 4 3
16 16 16 16 15 14 14 13 13 14 13 13 12 11 11 10 9 9 9 8 7 6 7 7 7 7 7 8 7 6 6 7 7 6 5 5 5 4 4 3 3 2 2 2 3 3 3 3 3 3 3 3 3 4 4 3 3 4 4 4 5 4 3 3 3 3 3 4 4 3 3 4 3 3 2 2 2 3 2 2 3 2 3 5 5
16 17 17 17 16 15 15 14 14 14 14 13 13 12 12 11 10 10 10 9 8 7 7 7 7 7 7 8 7 6 6 6 7 6 5 5 5 4 4 3 3 2 2 2 3 3 3 3 3 3 2 2 2 3 3 2 2 4 3 2 4 3 3 3 2 3 3 4 4 3 3 4 5 3 3 2 2 2 2 1 1 1 1 4 5
17 17 18 18 17 16 16 16 15 15 15 14 14 13 13 12 12 11 10 10 8 8 7 7 7 7 7 7 7 6 6 6 6 6 5 5 5 4 4 3 3 2 2 3 3 3 3 3 2 2 1 1 1 1 2 2 1 2 2 2 4 4 3 3 2 3 4 4 4 4 4 4 5 5 4 3 2 1 1 0 0 0 1 2 4
18 19 19 18 18 17 17 16 16 16 15 15 14 14 13 12 12 11 10 10 9 9 8 7 7 7 7 6 6 6 6 6 6 6 5 5 5 4 4 3 3 2 2 3 4 3 3 2 2 1 0 1 1 1 2 2 1 2 2 2 5 5 4 3 3 4 4 4 4 4 4 4 5 5 4 3 2 1 1 1 0 1 1 2 2
19 19 19 19 18 17 17 17 17 17 16 15 15 14 13 12 11 10 10 9 10 9 7 7 6 6 7 6 6 6 7 6 6 6 5 5 5 4 4 3 3 2 2 3 4 3 3 2 1 1 1 1 1 1 2 2 2 3 3 2 4 5 4 3 4 4 5 4 3 4 4 4 6 5 3 3 2 2 1 1 1 1 1 2 2
19 19 20 19 19 18 18 17 17 17 16 16 15 14 13 12 10 9 9 8 8 9 7 6 6 6 7 7 6 7 7 6 6 6 5 5 5 4 4 3 3 2 2 3 3 3 3 2 1 1 1 2 2 2 2 2 3 3 1 2 3 4 3 4 5 4 4 4 3 5 5 3 5 4 2 3 3 2 1 1 0 1 2 2 2
19 20 20 20 19 19 19 18 17 17 17 17 16 15 14 13 11 9 9 8 8 8 8 8 8 7 7 7 7 7 7 6 6 6 5 5 5 4 4 4 3 2 2 2 2 2 3 2 2 2 1 1 2 3 2 2 3 4 2 1 2 3 2 2 4 2 2 4 5 6 5 3 5 4 2 3 2 1 1 1 1 1 2 2 2
19 19 20 20 19 19 19 19 17 17 17 17 18 16 15 15 14 12 11 10 9 10 10 9 9 8 8 8 8 8 8 7 7 7 6 6 5 5 4 4 3 3 3 2 2 2 3 3 3 3 2 1 1 2 2 2 2 2 1 2 2 2 2 1 2 1 1 3 3 6 6 4 6 5 3 3 2 2 1 1 1 1 1 1 1
20 19 19 20 20 19 20 20 18 17 17 18 19 18 16 16 16 14 13 12 11 10 10 9 9 8 8 8 8 8 8 7 7 7 7 6 5 5 4 4 4 4 3 3 2 2 3 3 3 3 3 3 2 2 2 2 2 1 1 2 2 2 2 1 1 2 2 2 1 3 6 5 6 5 4 3 3 3 2 1 1 1 1 0 1
20 20 20 20 20 20 21 21 19 18 17 18 20 20 18 17 17 15 13 12 11 10 10 9 8 8 7 8 8 8 8 8 7 7 7 7 6 5 5 5 4 4 4 3 3 2 2 3 3 3 3 3 3 2 2 2 2 2 1 1 2 1 1 1 2 1 1 1 1 2 5 5 5 6 4 4 4 4 3 2 1 1 2 1 0
21 21 20 20 21 21 21 21 19 18 18 18 20 21 19 18 17 16 14 13 12 10 10 10 9 8 8 8 8 8 8 8 7 7 7 7 7 6 5 5 5 5 4 3 3 3 3 3 3 4 4 4 3 3 2 2 3 2 2 1 1 1 1 1 1 1 1 1 1 2 3 3 5 5 3 4 4 4 4 3 2 2 2 2 1
22 21 21 20 20 21 21 21 20 19 19 19 20 20 20 18 17 17 15 14 12 11 10 10 10 9 9 9 8 8 7 8 8 7 7 7 7 7 6 6 5 5 5 4 4 4 4 4 4 4 4 4 3 3 3 3 2 2 3 3 2 2 2 1 1 1 2 1 1 1 3 3 3 4 3 4 4 3 4 3 2 3 3 3 2
23 22 22 21 21 21 21 22 22 20 19 20 20 20 20 19 18 18 17 16 14 13 11 11 11 10 10 10 9 8 8 7 8 8 8 8 8 8 7 6 6 6 6 5 5 5 4 4 4 4 4 4 4 3 3 3 3 3 3 4 4 3 3 2 1 0 0 0 2 3 1 2 1 3 3 2 1 2 3 2 3 4 4 4 4
Wind_Direction
137 132 132 128 127 133 129 131 131 129 128 126 128 138 144 140 130 120 116 114 112 111 109 106 104 103 101 101 103 103 102 100 98 95 94 93 93 93 89 86 85 87 90 91 94 95 96 97 98 98 97 97 100 101 99 94 95 98 94 87 91 97 102 100 98 101 103 102 102 104 105 103 102 99 95 93 90 85 85 89 92 97 93 89 88
139 134 132 131 132 132 128 129 129 129 130 126 124 132 142 138 130 123 120 116 113 111 108 106 104 103 104 105 108 107 103 99 97 97 98 98 101 97 90 87 85 90 92 93 100 97 96 97 94 94 97 104 106 99 96 92 87 93 99 95 93 97 101 103 100 102 105 104 104 106 106 105 102 98 97 95 91 86 86 90 94 96 92 90 88
136 135 134 132 130 125 120 126 129 128 125 122 126 134 136 131 126 122 119 117 114 112 109 109 110 110 111 112 112 109 106 103 103 102 104 107 102 94 87 85 84 84 82 85 90 90 94 99 96 96 102 109 104 92 93 92 86 90 98 95 94 98 101 101 100 103 104 103 106 107 105 105 102 98 97 95 91 88 88 92 96 95 92 89 86
135 136 135 133 131 126 125 131 129 122 118 125 134 135 129 124 122 120 118 117 115 113 112 113 115 116 116 115 115 113 110 108 109 106 107 106 96 89 84 81 82 83 83 83 84 87 94 97 96 98 105 109 102 98 99 94 87 89 92 89 94 104 106 101 100 103 102 102 105 103 103 102 99 97 95 94 94 91 90 94 96 95 92 90 88
134 135 137 136 135 133 133 133 128 126 128 135 136 131 125 122 120 119 118 116 116 114 114 115 115 115 116 115 115 110 104 105 108 105 102 99 92 87 83 86 92 94 91 88 89 93 96 96 97 97 101 103 101 100 100 97 92 89 89 89 96 106 110 110 107 103 99 102 103 102 105 103 100 98 95 97 96 91 90 92 92 92 91 90 87
135 137 139 138 138 136 134 133 132 133 135 134 131 126 122 120 118 117 117 118 118 117 115 112 109 108 108 107 105 98 95 99 102 99 97 94 89 87 87 95 99 95 93 91 93 95 97 99 99 97 97 98 100 100 101 100 96 92 91 91 97 102 108 110 106 98 94 96 100 106 109 104 103 99 94 98 97 92 90 90 90 88 86 84 83
135 137 139 138 137 135 134 135 134 133 130 127 124 121 119 118 117 115 117 117 115 113 108 103 100 100 100 98 96 94 96 96 96 96 96 94 90 91 93 94 93 94 95 95 96 96 97 99 100 100 100 100 102 104 104 101 99 97 95 96 98 99 104 107 106 99 92 88 88 100 108 107 106 99 95 98 98 96 92 90 87 83 81 81 80
136 138 141 138 136 135 135 137 133 130 126 123 119 116 116 116 116 117 116 113 109 106 101 98 95 96 96 94 96 98 98 97 99 99 97 96 93 93 93 90 88 90 95 98 99 101 100 100 102 102 102 103 103 102 100 100 101 98 99 104 98 97 101 101 103 102 101 103 94 90 101 106 103 97 95 97 98 95 91 88 85 80 77 79 79
136 138 140 136 135 134 135 137 134 130 126 121 118 115 115 117 118 117 114 110 106 103 101 97 94 96 97 97 99 99 96 95 99 101 99 95 91 91 91 89 86 86 94 97 98 102 100 100 103 104 105 105 101 99 97 99 99 99 105 107 98 100 99 93 95 98 103 112 112 106 105 105 99 96 97 98 95 91 89 86 83 80 75 76 78
135 134 133 132 134 134 133 135 135 131 126 122 118 114 116 118 117 116 113 110 108 107 103 97 96 98 100 98 97 97 94 92 93 97 97 93 91 92 92 89 85 86 91 91 92 98 101 102 104 108 108 106 102 100 100 100 101 104 109 103 99 101 95 89 89 91 94 100 106 107 105 102 97 97 101 101 96 94 92 86 81 79 74 74 75
133 130 128 130 132 131 131 132 133 130 125 122 118 115 117 118 118 118 115 114 111 108 102 98 97 97 98 97 95 98 99 96 96 96 94 92 91 88 88 88 84 82 84 88 93 96 100 103 106 111 110 107 106 107 106 105 107 108 106 100 102 101 91 85 85 86 89 93 97 98 99 98 97 100 102 99 96 93 89 84 81 78 75 74 73
132 128 128 130 131 130 130 131 132 129 125 122 117 116 117 118 119 118 117 114 112 108 103 97 97 99 98 97 97 100 101 100 97 94 93 91 89 85 86 87 86 86 90 97 98 93 96 101 106 112 110 107 108 111 112 112 112 107 101 99 102 100 90 83 84 86 90 94 95 96 98 98 99 100 100 98 96 92 88 84 80 78 76 75 75
134 131 130 130 131 130 130 132 132 130 126 122 118 119 118 118 117 116 115 110 107 105 102 99 101 102 98 98 100 100 98 97 97 96 97 92 87 84 85 86 85 90 96 98 94 91 94 100 106 108 106 104 105 110 115 116 111 104 99 100 102 96 88 83 85 90 92 93 94 96 97 96 98 100 99 98 95 91 88 84 81 78 76 75 76
136 134 132 131 132 131 132 134 136 133 127 123 120 121 120 119 115 112 110 106 105 102 101 103 105 104 100 99 101 101 99 98 98 96 95 92 88 83 83 86 85 86 88 88 90 93 98 102 104 102 100 99 101 111 118 115 107 101 99 100 100 92 86 86 87 91 90 89 90 91 92 93 97 99 98 95 92 90 86 83 80 78 76 76 76
137 135 134 133 133 133 134 138 139 135 129 124 122 121 121 120 116 115 113 108 106 105 104 103 102 102 101 100 101 102 102 100 96 94 93 92 92 89 86 85 85 87 86 88 94 98 100 100 100 98 98 98 102 109 113 109 104 102 100 99 100 92 84 86 88 88 88 88 87 88 89 92 96 96 95 94 91 88 86 84 82 78 75 75 76
137 135 135 135 135 136 137 140 139 135 130 125 122 120 120 119 118 119 119 116 111 109 106 105 105 106 105 102 101 100 102 103 99 96 93 92 93 93 89 86 89 94 93 94 97 99 98 97 98 97 96 98 103 106 106 107 106 102 101 101 99 91 82 84 87 87 88 88 87 88 88 91 93 94 94 92 89 86 85 85 83 80 75 74 76
137 136 134 136 137 138 139 141 139 134 130 127 122 119 119 119 120 120 121 122 114 110 109 108 108 110 109 105 106 107 106 103 98 94 92 94 95 94 94 98 104 105 101 98 97 95 95 97 98 99 99 100 100 101 103 107 106 101 102 101 97 90 83 83 89 89 89 88 86 87 89 92 93 93 92 89 87 86 84 82 82 82 78 75 75
139 137 134 135 137 138 140 139 138 135 132 129 123 119 118 118 119 118 122 124 120 115 109 101 99 103 106 108 113 113 108 100 98 100 103 105 104 102 105 111 112 109 104 99 95 93 91 93 94 93 94 97 97 97 98 101 102 99 100 99 98 93 89 87 91 92 89 87 87 87 91 94 93 91 91 89 85 80 80 83 84 85 82 78 75
142 140 136 137 139 137 139 140 140 140 136 133 129 124 121 118 118 117 119 120 120 120 111 103 102 102 104 107 108 108 108 107 108 111 113 109 105 106 106 105 104 102 101 99 96 93 89 87 89 89 89 95 96 94 95 96 99 99 99 102 100 92 90 92 93 93 89 87 88 89 93 95 93 94 95 91 84 77 79 81 82 86 86 82 78
144 143 139 139 142 140 142 143 145 142 136 135 132 129 124 119 117 115 114 113 117 120 117 117 119 117 115 108 102 105 110 112 112 114 113 107 105 104 100 98 97 95 95 96 95 94 93 88 88 94 96 100 98 95 94 95 100 103 107 109 100 90 91 93 93 91 88 88 89 95 100 98 97 95 91 88 85 80 79 80 80 83 88 86 82
146 146 144 144 145 143 144 144 145 138 134 135 128 126 123 119 115 113 115 115 114 115 114 118 119 120 120 112 107 110 111 109 110 110 108 106 105 103 100 99 100 98 92 90 89 91 94 90 92 99 100 101 100 98 95 95 101 109 114 105 94 92 93 90 91 91 89 90 92 101 105 99 96 91 87 88 85 78 76 82 84 83 87 86 83
150 149 148 149 147 146 146 144 142 137 139 135 123 125 123 120 120 115 114 113 110 110 111 114 115 118 119 115 115 114 110 110 112 111 108 108 106 103 103 102 103 104 99 92 87 88 90 92 97 98 94 92 91 89 88 90 95 103 101 92 90 96 93 91 94 93 92 93 96 102 101 95 95 90 86 88 87 81 77 81 82 84 86 82 78
155 153 152 152 149 149 149 145 142 141 145 136 125 129 127 125 124 118 115 111 108 109 113 116 119 122 121 121 119 114 112 115 115 112 110 110 107 105 104 100 99 101 102 100 97 99 103 106 105 96 87 82 77 77 83 87 83 84 88 89 97 97 94 98 97 95 95 97 98 98 95 92 91 87 83 85 86 82 80 81 77 77 80 77 73
160 154 153 154 151 151 149 144 144 147 148 138 130 133 134 133 129 125 124 119 117 115 115 119 123 124 123 123 119 115 115 113 111 106 105 108 106 103 99 94 93 94 99 104 106 109 113 112 111 105 98 91 86 88 96 98 90 90 96 99 100 99 101 99 96 96 95 95 97 96 93 85 80 83 84 82 81 77 74 78 75 73 75 72 68
160 154 154 156 154 153 149 147 149 153 151 142 136 138 137 136 134 132 130 128 127 124 123 124 125 124 119 119 117 115 115 114 112 107 107 109 107 102 95 93 93 92 94 101 103 104 106 104 106 110 110 107 105 105 106 106 107 105 103 100 100 102 100 96 95 95 93 91 92 96 97 87 78 78 79 76 75 74 69 70 71 71 72 68 63
161 159 158 156 156 154 152 152 154 155 153 145 139 141 140 138 137 134 133 132 131 130 130 130 130 128 121 119 118 116 115 112 110 108 106 104 101 98 96 97 96 94 94 94 92 90 94 94 94 100 104 105 105 106 108 109 109 106 103 101 100 99 95 94 93 91 92 91 88 89 93 92 88 80 77 76 72 71 65 63 65 66 67 65 58
164 163 158 156 158 158 157 156 155 156 153 146 143 145 143 140 139 137 135 134 135 136 133 133 133 131 126 122 118 117 114 109 106 103 101 98 96 96 97 99 97 94 93 90 88 85 84 84 87 92 97 102 105 108 109 109 110 109 107 104 102 99 96 95 92 93 95 92 87 84 94 97 94 89 83 80 74 69 64 58 58 58 58 57 52
163 163 160 159 163 163 162 160 157 157 155 150 148 150 146 141 141 137 135 135 137 135 129 131 132 130 127 122 117 114 111 109 108 102 98 97 97 100 101 101 98 94 91 88 85 82 80 79 80 85 90 97 103 107 109 110 111 108 107 105 103 100 98 96 94 95 95 95 87 74 92 105 103 100 90 84 77 68 65 62 58 54 53 51 50
164 164 164 165 167 166 166 164 159 158 157 155 151 151 147 140 141 137 134 135 134 130 129 130 129 126 122 118 114 111 112 110 108 105 103 102 103 105 104 101 97 92 89 85 81 78 77 74 74 78 82 88 95 100 104 107 106 105 106 105 104 102 99 98 96 96 95 99 97 74 76 93 101 98 88 86 85 79 73 68 63 56 55 53 50
164 166 167 167 168 168 169 165 161 161 158 156 154 153 145 138 139 137 135 133 129 127 128 128 125 123 122 121 114 109 112 111 109 108 109 109 108 106 104 101 95 89 86 81 76 74 75 73 71 71 72 78 85 90 95 98 100 101 102 102 102 100 99 99 99 101 99 100 106 88 71 78 86 85 84 86 89 88 81 76 69 63 60 56 47
164 167 169 168 169 168 168 165 163 163 160 157 157 153 142 138 142 139 135 130 127 127 128 128 124 122 124 122 117 111 108 111 113 114 116 116 114 108 102 98 91 85 81 77 73 72 73 72 69 67 66 70 76 80 88 94 97 99 100 99 98 96 96 99 100 102 101 98 105 101 77 68 72 73 77 83 89 93 88 84 78 70 68 55 41
166 170 168 167 171 170 166 165 166 167 164 161 159 153 144 143 146 140 135 133 132 131 130 130 126 125 124 122 121 116 109 111 114 115 121 120 115 110 100 94 90 83 75 71 70 71 75 73 68 66 66 69 73 75 83 90 93 97 99 98 95 95 93 92 94 94 98 98 100 106 97 73 63 64 66 69 81 92 96 100 93 74 49 27 11
168 170 167 167 172 170 166 165 168 170 168 163 159 155 149 148 147 142 140 140 139 135 131 130 129 126 123 124 125 119 114 114 116 117 120 119 112 107 100 95 89 82 75 71 70 74 78 77 73 70 69 71 73 74 82 89 90 93 95 96 94 92 92 91 91 91 95 99 99 102 106 105 77 59 61 58 55 58 68 112 190 293 324 327 334
167 170 170 170 170 167 168 167 170 173 171 166 160 158 154 151 149 146 146 147 144 138 135 133 132 132 131 133 130 124 122 120 121 119 117 119 115 105 100 98 90 83 82 76 75 79 76 72 70 68 68 67 67 72 83 88 91 91 91 94 94 92 90 87 87 88 90 92 96 98 100 106 98 83 60 40 41 38 7 321 296 286 290 301 310
168 172 172 171 170 169 170 168 171 174 173 169 162 161 158 154 152 150 152 152 149 144 141 140 139 140 140 141 141 133 128 125 125 121 116 120 118 110 103 98 92 89 86 78 74 77 70 64 59 59 64 60 63 74 84 91 95 97 96 97 96 95 93 88 87 91 91 89 93 95 93 94 94 95 83 32 22 34 26 353 316 304 293 300 305
172 174 173 173 172 171 173 171 171 173 174 172 165 162 161 157 156 154 157 158 155 151 148 145 144 146 144 143 141 135 134 132 130 126 119 117 116 112 106 101 98 93 87 77 74 73 65 63 52 53 60 53 61 75 84 92 97 102 107 107 101 97 94 90 88 85 82 83 87 92 92 92 82 66 72 76 44 14 22 19 342 324 314 309 308
176 176 174 175 174 172 176 175 172 172 173 172 168 165 165 162 160 159 161 162 161 157 153 149 147 148 145 143 141 137 143 144 139 133 123 121 118 114 111 109 105 97 90 79 78 71 60 62 55 53 53 46 58 72 80 87 94 103 108 107 101 94 90 84 80 79 80 82 83 88 89 88 82 69 68 82 81 23 12 22 22 11 2 337 319
178 179 177 178 177 173 176 176 173 172 171 172 171 169 168 166 164 164 165 166 167 161 156 155 154 150 145 146 146 143 147 150 148 140 128 128 123 118 117 115 111 99 94 87 82 72 59 62 63 59 49 44 55 61 66 72 81 97 102 105 101 89 87 81 74 75 79 84 78 80 88 87 89 86 78 68 77 79 27 17 25 28 18 9 355
182 180 179 180 179 175 174 173 173 172 170 171 172 171 171 170 169 168 169 171 172 167 163 162 161 155 149 151 151 148 153 154 151 145 138 134 130 127 124 121 118 102 88 90 86 79 68 64 70 72 57 47 49 47 54 60 63 72 79 100 105 94 88 82 80 83 78 84 79 75 94 95 95 93 86 85 81 82 74 32 21 21 6 12 22
184 181 178 180 181 178 174 172 175 174 170 171 173 174 174 173 173 173 174 176 175 173 172 169 169 161 155 157 159 158 161 159 155 151 144 137 133 131 128 124 121 111 92 84 83 81 73 68 70 71 63 52 45 36 39 38 44 57 58 97 114 114 106 83 79 92 88 90 88 77 86 93 94 95 90 90 93 80 75 44 18 39 348 357 14
184 182 180 182 183 180 176 173 175 176 174 174 176 177 177 175 176 177 178 178 176 176 175 175 173 163 158 162 166 167 167 165 163 158 151 145 138 133 130 128 125 121 106 93 86 86 83 77 75 68 60 54 39 27 29 17 18 66 66 120 128 127 120 110 104 106 103 101 100 90 84 95 100 101 102 89 82 100 115 131 347 27 324 325 346
183 183 183 184 185 184 181 176 175 178 180 179 178 179 180 178 177 179 179 175 174 176 174 175 172 161 162 169 170 173 174 171 171 165 157 153 146 137 133 132 134 130 119 111 101 96 95 90 93 102 128 91 27 29 34 355 320 94 84 120 133 126 115 123 124 118 115 107 110 104 91 101 101 94 102 106 105 124 132 122 84 350 326 314 313
182 184 185 185 185 187 185 180 178 180 183 183 181 181 180 180 179 178 178 174 174 176 169 168 170 162 164 173 176 178 179 177 178 171 162 157 151 144 143 142 143 144 134 122 111 104 104 104 115 122 167 163 143 80 52 3 9 78 105 126 132 129 121 123 116 107 110 107 111 107 94 98 101 94 103 120 116 107 104 100 72 323 305 308 304
185 185 185 186 186 188 186 184 182 181 183 184 183 181 178 178 178 175 175 172 171 174 171 170 175 172 171 176 180 182 181 180 181 176 168 163 155 149 150 151 151 151 144 123 113 117 121 130 133 123 200 179 139 128 92 51 34 46 96 131 132 133 120 121 118 108 110 111 95 87 86 98 103 101 117 115 99 96 114 120 80 294 295 307 311
187 187 186 187 188 189 187 185 185 184 184 183 181 179 176 177 178 176 177 176 176 180 183 183 183 185 185 183 184 184 182 180 181 180 174 168 161 157 157 158 161 158 151 133 122 133 139 154 152 144 197 199 132 142 123 90 60 42 38 72 114 118 84 90 110 93 78 98 92 86 83 99 104 101 111 101 93 117 146 139 191 260 281 310 317
189 189 188 188 188 188 186 186 187 187 186 183 181 180 179 182 185 186 187 186 188 190 192 191 185 187 190 184 181 182 183 180 180 181 176 171 167 166 169 168 169 168 167 162 146 156 164 163 164 165 176 191 196 165 151 146 104 55 56 85 80 83 66 48 98 101 42 53 84 104 95 92 105 114 130 129 135 142 127 137 186 230 245 283 298
190 190 190 190 189 188 186 186 188 188 188 184 183 184 185 187 190 193 194 193 195 195 196 195 186 185 187 181 179 180 184 183 180 181 178 174 174 176 183 180 177 178 174 175 175 174 162 152 162 168 163 172 207 225 201 174 151 191 189 136 122 82 67 38 59 125 120 56 31 107 97 96 109 113 117 126 125 110 94 104 147 144 138 120 301
190 190 191 191 189 188 187 187 188 188 188 186 185 188 190 191 193 195 198 200 201 197 195 197 187 183 184 182 182 180 183 186 181 182 181 179 182 185 189 185 183 183 179 182 186 174 148 144 160 168 170 177 193 225 225 214 210 185 171 170 156 124 112 78 55 60 147 114 134 98 85 91 96 88 83 88 87 94 99 90 93 113 112 98 58
192 191 192 191 189 189 188 187 188 188 188 187 187 192 194 193 194 196 198 201 205 202 197 198 193 186 187 186 185 182 182 188 187 186 186 186 190 192 192 189 187 187 190 191 183 173 163 159 168 176 183 187 188 208 218 236 244 190 158 174 170 170 176 130 119 167 96 79 126 115 108 108 95 84 65 63 71 82 91 90 108 112 92 88 70
194 191 191 191 188 188 188 187 189 189 189 189 189 194 195 195 196 197 198 199 202 204 200 199 197 194 193 190 190 189 186 189 190 191 191 192 196 197 195 193 193 195 197 194 181 179 177 170 174 180 186 190 189 200 212 220 233 205 177 174 183 203 177 167 223 152 97 102 279 226 132 117 101 99 64 45 64 73 73 77 109 99 75 62 55
194 191 191 190 187 186 187 187 189 189 188 189 191 195 196 198 201 199 199 198 198 201 201 200 200 199 199 195 195 196 194 193 190 191 193 196 199 200 199 197 198 200 199 195 189 184 181 175 172 176 185 196 197 202 216 213 207 207 201 193 201 208 187 189 203 31 43 109 308 295 77 53 25 102 82 49 70 80 79 79 77 76 66 57 56
Height
825 826 828 827 829 829 830 830 830 831 832 833 834 836 835 836 837 837 838 838 838 839 839 839 840 840 840 840 841 841 842 843 843 844 844 844 844 844 844 845 845 845 845 845 845 845 846 846 846 846 846 845 844 843 844 844 845 845 846 848 847 846 844 845 848 848 849 849 850 851 853 853 852 853 855 856 856 856 855 855 855 855 855 855 856
825 827 828 828 830 830 831 829 831 833 834 833 834 837 837 838 838 839 839 839 840 840 840 840 840 841 841 841 842 843 844 844 845 845 845 845 845 845 845 846 846 846 845 846 846 846 846 846 847 847 847 846 845 845 845 846 847 847 847 849 850 849 846 845 849 850 850 850 851 852 853 854 854 855 856 857 857 857 856 856 857 856 856 857 857
826 829 829 829 830 829 830 831 834 834 834 833 836 840 839 840 839 840 840 840 840 840 841 841 842 842 842 843 844 844 845 845 845 846 845 845 846 846 846 846 846 846 846 847 847 847 847 846 847 847 847 847 847 848 847 847 849 849 849 851 852 852 848 847 849 851 852 852 852 852 854 855 855 856 857 858 858 858 858 858 858 858 858 858 859
828 829 830 830 830 831 833 835 836 834 834 837 842 843 841 841 840 841 841 841 841 842 842 842 843 843 844 844 845 846 846 846 847 846 846 846 847 847 847 847 846 847 847 848 848 847 847 847 848 848 848 848 849 848 848 849 850 851 850 852 855 855 851 849 850 852 853 853 853 853 855 856 857 857 858 859 859 859 859 859 859 859 859 860 860
829 830 831 831 832 834 835 837 836 836 839 843 845 843 842 842 841 842 842 842 842 843 843 844 844 844 845 845 846 846 847 848 848 847 847 848 848 848 848 847 846 847 848 849 849 848 847 847 848 849 849 849 850 849 849 850 851 852 851 854 857 856 855 854 852 853 854 855 855 855 856 858 858 859 859 860 860 860 860 861 861 861 861 861 861
829 830 832 833 835 835 837 838 839 840 842 844 844 843 843 843 843 843 843 843 843 844 844 845 846 846 846 846 847 847 848 848 848 848 848 849 849 849 848 847 847 847 848 850 849 848 848 848 848 850 850 850 851 850 850 851 852 853 852 855 857 856 858 858 856 854 854 855 856 857 858 859 860 860 861 861 862 862 862 863 863 863 863 863 863
828 831 833 833 835 836 838 840 841 842 842 843 843 843 843 843 843 843 844 844 844 845 846 847 847 847 847 848 848 848 849 849 848 848 848 849 849 849 848 847 848 848 849 850 850 849 849 849 849 850 851 851 851 852 852 851 853 853 854 857 858 856 858 859 858 856 855 856 856 857 858 861 861 862 863 863 863 863 864 864 864 864 864 864 864
828 831 832 834 835 836 839 840 841 842 842 843 843 844 844 844 844 844 845 845 845 846 847 848 848 848 849 849 850 850 850 850 849 848 849 849 850 850 849 849 849 849 850 851 851 851 851 850 850 851 852 852 853 853 853 853 853 854 856 860 858 857 858 859 860 859 859 859 857 856 858 861 862 863 864 864 865 865 865 866 865 865 865 865 865
829 831 832 834 835 837 839 840 841 842 843 843 844 844 844 845 845 845 845 846 846 847 848 849 849 849 850 851 851 851 851 851 850 849 850 850 851 851 851 851 851 852 851 851 852 853 852 851 852 853 854 854 854 854 855 855 854 855 858 860 859 858 859 860 861 862 863 862 861 860 861 863 864 865 866 866 866 867 867 867 867 867 866 866 866
829 831 833 834 835 838 839 841 842 843 844 844 845 845 845 846 846 846 846 847 847 848 849 851 851 850 850 851 852 852 852 852 851 851 851 851 852 851 852 852 853 853 851 851 854 855 853 852 853 855 856 855 855 856 856 857 857 858 860 861 860 860 860 861 862 863 863 863 863 863 865 866 866 867 867 868 868 868 869 869 868 868 868 868 868
830 832 834 835 836 838 840 842 842 844 845 845 846 846 847 847 847 847 847 848 848 850 850 851 852 851 851 852 853 853 852 852 852 852 852 852 852 852 852 854 855 854 852 853 856 856 855 854 855 856 858 857 857 857 858 859 859 860 861 861 861 861 861 862 862 863 864 864 865 865 867 868 868 869 869 869 869 870 870 869 869 869 869 869 869
830 832 834 836 837 839 840 842 843 844 845 846 847 847 848 848 848 848 848 849 849 851 851 852 852 852 852 853 853 853 853 853 853 853 854 854 853 852 853 855 855 854 854 856 857 856 856 856 857 858 858 859 858 858 859 860 861 862 862 862 862 862 862 863 863 864 865 865 866 866 868 869 869 870 870 871 871 871 871 871 871 870 870 870 870
831 833 835 837 837 840 841 842 844 845 846 847 848 848 849 849 849 848 848 850 850 851 852 853 853 852 853 854 854 854 854 854 853 854 855 855 854 852 853 854 854 854 856 857 856 856 857 858 859 860 860 859 859 859 860 861 862 862 862 863 863 863 863 864 864 865 865 866 867 868 869 869 870 871 871 872 872 872 872 872 872 872 872 872 872
832 834 836 838 839 841 842 844 845 846 847 848 849 849 850 850 850 849 848 849 851 852 852 854 854 853 853 854 855 855 855 854 854 854 856 857 856 854 854 856 856 856 856 857 857 858 859 860 861 861 861 859 859 860 861 862 862 863 863 864 864 864 865 865 866 866 866 867 868 869 870 871 871 872 873 873 873 873 873 873 873 873 873 873 873
833 834 837 839 840 841 843 844 845 847 848 848 849 850 850 851 851 851 850 850 852 852 853 854 854 855 854 855 856 856 857 855 855 854 857 859 859 857 856 858 859 858 858 859 860 861 862 862 862 861 861 860 861 862 862 862 862 863 864 865 865 866 867 867 867 867 867 868 870 871 871 872 872 873 874 874 874 874 874 875 875 874 874 874 874
834 835 837 839 841 842 843 845 846 847 848 849 850 850 851 851 852 853 853 851 852 853 854 855 855 856 856 856 856 857 858 857 855 855 857 859 861 859 857 860 862 862 862 862 863 863 864 863 863 862 862 862 862 862 862 863 863 864 865 866 867 867 868 868 868 869 869 870 871 872 872 873 873 874 875 875 875 875 876 876 876 876 876 876 876
834 836 838 839 841 843 844 845 846 848 849 850 850 850 851 851 853 854 855 853 852 854 855 856 856 857 857 858 859 859 859 858 856 855 856 859 861 861 860 863 866 866 865 864 865 865 865 864 864 863 863 863 863 863 863 864 864 865 866 867 868 868 869 869 870 871 871 872 872 873 874 874 875 875 876 876 876 876 877 877 877 877 877 877 877
835 837 838 840 842 843 845 846 847 848 849 850 850 851 851 852 853 854 856 856 854 854 854 854 854 855 857 859 861 861 860 858 857 857 859 862 863 864 865 867 868 868 867 866 865 865 865 865 864 863 863 863 863 864 864 865 865 866 867 868 868 869 870 871 872 872 872 872 873 874 875 875 876 877 877 877 877 877 878 878 878 878 878 878 878
836 837 839 841 842 844 845 846 847 848 849 850 850 851 852 852 853 854 855 856 856 856 856 855 855 855 857 859 861 861 862 861 861 862 862 863 864 865 866 867 867 867 868 868 866 865 865 864 863 863 863 863 863 864 865 865 866 867 868 869 870 871 872 873 873 873 873 873 874 875 876 877 877 878 878 878 878 878 879 879 878 879 879 879 879
836 837 839 841 842 844 845 847 848 848 850 850 851 851 852 853 853 854 854 855 857 857 858 859 859 859 860 860 860 862 863 863 864 864 864 864 864 865 866 867 867 867 868 868 868 867 866 865 864 864 865 865 865 866 867 868 868 869 870 871 872 873 873 874 873 874 874 874 875 876 877 878 878 878 879 879 879 879 879 879 879 879 880 879 879
837 838 839 841 842 844 845 847 847 849 850 850 851 852 852 853 854 854 854 855 856 857 858 859 860 860 861 861 862 863 863 864 864 864 864 864 865 865 866 868 869 869 869 868 868 868 867 866 865 866 866 867 868 868 869 870 871 871 872 873 873 874 875 874 874 874 875 876 877 877 878 879 879 879 879 880 880 880 880 880 880 880 880 880 880
836 837 839 841 842 844 845 847 848 849 849 850 852 852 853 853 854 854 854 855 856 857 858 859 860 860 861 862 863 863 863 864 864 864 865 865 865 866 867 868 870 871 871 869 869 868 867 866 867 867 866 867 868 869 870 871 872 873 873 873 874 875 875 875 875 876 876 877 878 878 879 879 879 880 880 880 880 880 881 881 881 881 881 881 881
835 837 839 841 843 844 846 847 848 849 849 851 852 853 854 854 855 855 855 856 856 857 858 859 860 861 862 862 863 863 864 864 864 864 865 865 866 867 868 868 870 871 872 872 871 871 871 871 870 869 867 867 867 868 870 872 873 873 874 875 876 876 876 877 877 877 878 878 879 879 879 880 880 880 881 881 881 881 881 881 881 881 881 882 882
835 837 839 841 843 844 846 847 848 849 850 851 852 853 854 855 856 856 857 857 858 858 859 860 860 861 861 862 863 863 864 863 864 864 865 866 866 867 868 868 869 870 871 872 872 873 873 874 873 872 871 871 871 872 873 875 875 876 877 877 877 878 878 878 878 878 879 879 879 880 880 880 881 881 881 881 881 882 882 882 882 882 882 882 882
835 837 839 841 843 844 846 847 848 849 850 851 852 854 854 855 856 856 857 857 858 859 859 860 860 861 861 862 863 863 864 864 864 865 866 866 867 867 868 869 869 870 871 871 872 872 873 874 874 874 875 875 876 876 876 877 878 878 878 879 879 879 879 879 879 879 880 880 879 880 880 881 881 881 881 882 882 882 882 882 882 883 883 883 883
836 838 839 841 843 844 846 847 848 849 850 852 852 854 854 855 856 856 857 858 859 859 860 860 861 861 862 862 863 863 864 864 865 866 866 867 867 868 868 869 870 871 871 872 872 872 873 874 875 876 877 877 877 878 878 878 879 879 879 879 879 879 879 879 880 880 880 880 880 880 881 881 881 882 882 882 882 882 883 883 883 883 883 883 883
836 838 839 841 843 844 846 847 848 849 851 852 853 854 855 855 856 856 857 858 859 860 860 861 861 862 862 863 863 864 864 865 866 866 867 867 868 868 869 870 870 871 871 872 873 873 874 874 875 876 877 877 878 878 879 879 879 879 880 879 880 880 880 880 880 880 881 881 880 880 881 881 882 882 882 882 882 883 883 883 883 883 883 884 884
836 838 840 841 843 844 846 847 848 850 851 852 853 854 855 856 856 857 858 858 859 860 860 861 861 862 863 863 864 864 865 865 866 867 867 868 868 869 870 870 871 872 872 872 873 873 874 874 875 876 876 877 877 878 878 879 879 879 879 879 879 880 880 880 880 880 881 881 881 881 881 881 882 882 882 882 882 883 883 883 883 884 884 884 884
835 838 840 841 843 845 846 847 848 850 851 852 853 854 855 856 857 857 858 858 860 860 861 861 862 863 863 864 864 865 865 866 867 867 868 869 870 870 870 871 871 872 872 873 873 874 874 874 875 875 876 876 877 878 878 878 878 879 879 879 879 879 880 880 880 881 881 882 882 881 881 882 882 882 882 882 882 883 883 883 884 884 884 884 884
835 837 840 841 843 845 846 848 849 850 851 852 853 854 855 856 857 858 858 859 860 860 861 862 863 863 864 864 865 866 866 867 867 868 869 870 870 871 871 872 872 872 872 873 873 874 874 875 875 875 876 876 876 877 877 877 878 878 879 879 879 879 879 880 880 881 881 882 882 882 881 882 882 882 882 882 882 883 883 883 884 884 884 884 884
835 837 839 841 843 845 846 848 849 850 851 853 854 855 855 857 857 858 859 859 860 861 862 863 863 864 865 865 866 866 867 868 868 869 870 871 871 871 872 872 872 873 873 873 874 874 875 875 875 876 876 875 876 876 877 877 877 878 878 878 879 879 879 880 880 880 881 881 882 882 882 882 882 882 882 882 883 883 883 883 883 884 884 884 884
835 837 839 841 843 844 846 848 849 850 851 853 854 855 856 857 858 858 859 860 861 861 862 863 864 865 865 866 866 867 868 869 869 870 871 871 872 872 872 872 873 873 874 874 875 875 875 876 876 876 876 876 876 876 876 876 877 878 878 878 879 879 880 880 880 880 881 881 882 882 882 882 882 882 882 882 882 883 883 883 883 883 883 884 884
835 837 839 841 843 844 846 848 849 850 851 852 854 855 856 857 858 859 860 861 861 862 863 864 865 866 866 867 867 868 869 869 870 871 871 872 872 873 873 873 874 874 875 875 875 876 876 876 876 876 876 876 876 876 876 876 877 877 878 878 879 879 880 880 880 880 881 881 882 882 883 883 882 882 882 882 882 882 882 882 883 883 883 883 883
834 837 839 840 842 844 846 847 849 850 851 853 854 855 856 857 858 859 860 861 862 863 863 864 865 866 867 868 868 868 869 870 870 871 872 872 873 873 874 874 874 875 875 876 876 876 876 876 876 876 876 876 876 877 877 877 877 878 878 879 879 880 880 880 880 880 881 881 882 882 882 883 882 882 882 882 882 882 882 882 882 882 882 882 882
834 836 838 840 842 844 845 847 849 850 851 852 853 855 856 857 859 860 861 862 862 863 864 865 866 867 868 868 869 869 870 870 871 872 872 872 873 873 874 875 875 876 876 876 877 877 877 877 877 876 877 877 877 877 877 877 878 878 879 879 880 880 880 881 881 881 881 881 881 882 882 882 882 882 882 882 882 882 882 882 882 882 881 882 881
834 836 838 840 842 843 845 846 848 850 851 853 854 855 856 857 859 860 861 862 863 863 864 865 866 867 868 869 869 870 870 871 871 872 873 873 873 874 874 875 875 876 877 877 877 877 877 877 877 877 877 877 877 877 878 878 878 879 879 879 880 880 880 881 881 880 881 881 881 881 882 882 882 882 882 882 882 882 882 881 881 881 881 881 881
833 836 838 840 841 843 845 846 848 850 851 853 854 855 857 858 859 860 861 862 863 864 864 865 866 867 868 869 869 870 871 871 871 872 873 873 874 874 875 875 876 876 877 877 877 878 878 878 878 878 878 878 877 877 878 878 879 879 879 879 879 880 880 881 881 881 881 881 881 881 881 882 882 882 881 882 882 882 882 881 881 881 881 881 880
833 835 837 839 841 842 844 846 848 850 851 853 854 855 856 858 859 860 861 862 863 864 865 866 866 867 868 869 869 870 871 871 872 872 873 874 874 875 875 876 876 877 877 877 878 878 878 878 878 878 879 879 878 878 878 878 879 878 878 879 880 880 880 881 881 881 880 880 880 880 881 881 881 881 882 882 882 882 882 881 881 881 881 880 880
832 834 836 839 840 842 844 846 848 849 851 852 854 856 856 858 859 860 861 862 863 864 865 866 866 867 868 869 869 870 871 871 872 873 873 874 875 875 876 876 876 877 877 877 877 878 878 878 879 879 879 879 879 879 879 879 878 878 879 879 880 880 880 881 880 880 880 880 880 880 880 881 881 881 881 881 882 882 882 882 881 881 881 880 880
831 833 835 838 840 842 843 845 847 848 851 852 854 855 856 858 859 860 861 862 863 864 865 866 866 867 868 869 870 870 871 871 872 873 874 874 875 876 876 876 876 877 877 877 878 878 878 879 879 879 880 880 880 879 879 879 879 879 879 879 879 880 880 880 880 880 880 879 880 880 879 880 880 881 881 881 882 882 882 882 882 882 882 881 880
830 832 834 837 839 840 842 844 846 848 849 851 853 854 855 857 858 859 860 861 862 864 864 865 866 867 868 869 869 870 871 871 872 873 873 874 875 876 876 876 877 877 878 878 878 878 878 879 879 879 880 880 880 880 880 880 879 879 879 878 879 879 880 880 880 879 879 879 879 880 880 879 880 880 881 881 881 881 882 882 882 882 882 881 880
828 831 833 835 838 839 841 843 844 847 848 850 852 853 855 856 857 858 859 860 862 863 864 865 866 867 868 869 869 870 871 871 872 873 873 874 875 876 876 876 877 877 877 878 878 879 879 879 879 879 880 880 880 880 880 880 879 878 878 878 878 879 879 879 879 878 878 878 878 878 879 879 879 880 880 881 881 881 881 881 881 882 881 881 881
827 830 832 834 837 838 840 842 843 845 847 850 851 853 854 855 856 857 858 860 861 862 863 864 865 866 867 868 869 870 871 872 872 873 873 874 875 875 876 876 877 877 878 878 878 879 879 879 880 880 880 880 880 880 881 880 879 878 879 879 878 879 881 879 877 878 877 878 877 877 878 878 878 880 880 880 880 880 881 881 881 881 881 881 881
825 827 830 832 835 837 839 841 842 844 846 848 850 852 854 855 856 857 858 860 861 862 863 864 865 866 867 868 869 870 871 872 872 873 874 874 875 875 876 876 877 877 878 878 879 879 879 880 880 880 880 879 880 880 881 880 879 879 879 879 877 879 883 880 876 877 877 877 876 876 877 877 878 879 879 879 880 880 880 881 881 881 880 880 880
823 825 827 830 832 835 837 839 841 843 845 847 849 851 853 854 856 857 859 860 861 862 863 864 865 866 867 867 869 869 870 871 872 873 874 874 874 875 876 876 876 877 877 878 879 879 880 880 880 880 880 879 879 880 881 880 880 880 880 880 880 882 883 878 877 879 876 875 876 876 877 877 877 879 879 879 879 880 880 880 880 880 880 880 880
820 823 825 828 830 833 836 838 840 842 844 846 848 850 852 853 855 856 858 859 860 861 862 863 864 865 866 867 868 869 870 871 872 873 873 874 874 875 875 876 876 877 877 878 879 879 879 880 880 880 880 880 880 880 880 880 881 881 880 880 881 883 881 878 880 882 878 876 875 876 876 876 877 878 878 878 879 879 879 879 879 879 879 880 879
818 821 824 826 828 831 834 836 839 841 843 845 847 849 850 852 854 855 857 858 859 860 861 862 863 864 866 867 868 869 870 871 872 872 873 874 874 875 875 876 877 877 877 878 878 879 879 880 880 880 880 881 881 880 880 880 880 881 881 880 880 881 881 880 880 881 882 880 876 874 875 875 876 876 877 877 877 878 878 878 879 879 879 879 879
815 819 821 824 827 829 832 834 837 839 841 843 845 847 849 851 853 854 856 857 858 859 861 862 863 864 865 866 867 868 869 870 871 872 872 873 874 874 875 875 876 877 877 878 878 879 879 880 880 880 880 880 881 881 880 880 880 880 880 880 881 881 881 880 880 880 881 882 878 875 875 875 875 876 876 876 876 877 878 878 878 878 878 879 878
813 816 819 822 825 828 830 833 835 838 840 842 844 846 848 850 851 854 855 856 858 859 860 861 863 864 865 866 867 868 869 869 871 871 872 873 874 874 875 875 876 876 877 877 878 879 879 880 880 880 880 880 881 881 881 881 880 880 880 881 881 881 880 880 880 879 879 881 880 875 875 875 875 876 876 876 876 876 877 877 878 878 878 878 878
810 813 817 820 823 826 828 831 833 836 838 840 842 844 847 849 850 852 854 855 857 858 859 861 862 863 864 865 866 867 868 869 870 871 872 873 873 874 874 875 875 876 876 877 877 878 879 879 880 879 880 880 880 880 880 881 880 880 880 881 881 881 880 880 879 878 878 880 879 875 874 874 874 876 877 876 877 877 877 877 877 877 878 878 878
808 811 814 817 820 823 826 829 831 834 836 838 841 843 845 848 849 851 853 854 856 857 859 860 861 862 863 864 866 867 868 868 869 870 871 872 873 873 874 874 875 875 876 877 877 878 878 879 879 879 879 879 880 880 880 880 880 880 880 880 881 880 880 880 879 879 879 879 879 876 874 874 875 875 877 877 877 877 877 877 877 877 878 878 877